Time,TemperatureF,DewpointF,PressureIn,WindDirection,WindDirectionDegrees,WindSpeedMPH,WindSpeedGustMPH,Humidity,HourlyPrecipIn,Conditions,Clouds,dailyrainin,SoftwareType,DateUTC
2013-10-14 00:00:00,66.0,39.6,30.09,SE,139,0.0,0.0,38,0.00,,,-99.99,Weather View 32 v60,2013-10-14 04:00:00,
2013-10-14 00:05:00,66.0,39.6,30.09,SE,139,0.0,0.0,38,0.00,,,-99.99,Weather View 32 v60,2013-10-14 04:05:00,
2013-10-14 00:10:00,65.8,39.5,30.09,SE,139,0.0,0.0,38,0.00,,,-99.99,Weather View 32 v60,2013-10-14 04:10:00,
2013-10-14 00:13:00,65.8,39.5,30.09,SE,139,0.0,0.0,38,0.00,,,-99.99,Weather View 32 v60,2013-10-14 04:13:00,
2013-10-14 00:15:00,65.8,39.5,30.09,SE,139,0.0,0.0,38,0.00,,,-99.99,Weather View 32 v60,2013-10-14 04:15:00,
2013-10-14 00:25:00,65.8,40.1,30.09,SE,139,0.0,0.0,39,0.00,,,-99.99,Weather View 32 v60,2013-10-14 04:25:00,
2013-10-14 00:30:00,65.8,40.1,30.09,SE,139,0.0,0.0,39,0.00,,,-99.99,Weather View 32 v60,2013-10-14 04:30:00,
2013-10-14 00:40:00,65.7,40.0,30.09,SE,139,0.0,0.0,39,0.00,,,-99.99,Weather View 32 v60,2013-10-14 04:40:00,
2013-10-14 00:45:00,65.7,40.0,30.09,SE,139,0.0,0.0,39,0.00,,,-99.99,Weather View 32 v60,2013-10-14 04:45:00,
2013-10-14 00:55:00,65.7,40.0,30.09,SE,139,0.0,0.0,39,0.00,,,-99.99,Weather View 32 v60,2013-10-14 04:55:00,
2013-10-14 01:00:00,65.5,39.8,30.09,SE,139,0.0,0.0,39,0.00,,,-99.99,Weather View 32 v60,2013-10-14 05:00:00,
2013-10-14 01:05:00,65.5,40.5,30.09,SE,139,0.0,0.0,40,0.00,,,-99.99,Weather View 32 v60,2013-10-14 05:05:00,
2013-10-14 01:10:00,65.5,40.5,30.09,SE,139,0.0,0.0,40,0.00,,,-99.99,Weather View 32 v60,2013-10-14 05:10:00,
2013-10-14 01:20:00,65.5,40.5,30.09,SE,139,0.0,0.0,40,0.00,,,-99.99,Weather View 32 v60,2013-10-14 05:20:00,
2013-10-14 01:25:00,65.5,40.5,30.09,SE,139,0.0,0.0,40,0.00,,,-99.99,Weather View 32 v60,2013-10-14 05:25:00,
2013-10-14 01:35:00,65.5,40.5,30.09,SE,139,0.0,0.0,40,0.00,,,-99.99,Weather View 32 v60,2013-10-14 05:35:00,
2013-10-14 01:40:00,65.5,40.5,30.09,SE,139,0.0,0.0,40,0.00,,,-99.99,Weather View 32 v60,2013-10-14 05:40:00,
2013-10-14 01:45:00,65.5,40.5,30.09,SE,139,0.0,0.0,40,0.00,,,-99.99,Weather View 32 v60,2013-10-14 05:45:00,
2013-10-14 01:50:00,65.5,40.5,30.09,SE,139,0.0,0.0,40,0.00,,,-99.99,Weather View 32 v60,2013-10-14 05:50:00,
2013-10-14 02:00:00,65.3,40.9,30.09,SE,139,0.0,0.0,41,0.00,,,-99.99,Weather View 32 v60,2013-10-14 06:00:00,
2013-10-14 02:05:00,65.3,40.9,30.09,SE,139,0.0,0.0,41,0.00,,,-99.99,Weather View 32 v60,2013-10-14 06:05:00,
2013-10-14 02:10:00,65.3,40.9,30.09,SE,139,0.0,0.0,41,0.00,,,-99.99,Weather View 32 v60,2013-10-14 06:10:00,
2013-10-14 02:20:00,64.9,40.6,30.09,SE,139,0.0,0.0,41,0.00,,,-99.99,Weather View 32 v60,2013-10-14 06:20:00,
2013-10-14 02:30:00,64.8,40.5,30.06,SE,139,0.0,0.0,41,0.00,,,-99.99,Weather View 32 v60,2013-10-14 06:30:00,
2013-10-14 02:35:00,64.6,40.3,30.06,SE,139,0.0,0.0,41,0.00,,,-99.99,Weather View 32 v60,2013-10-14 06:35:00,
2013-10-14 02:40:00,64.6,40.3,30.06,SE,139,0.0,0.0,41,0.00,,,-99.99,Weather View 32 v60,2013-10-14 06:40:00,
2013-10-14 02:50:00,64.4,40.1,30.06,SE,139,0.0,0.0,41,0.00,,,-99.99,Weather View 32 v60,2013-10-14 06:50:00,
2013-10-14 02:55:00,64.6,40.9,30.06,SE,139,0.0,0.0,42,0.00,,,-99.99,Weather View 32 v60,2013-10-14 06:55:00,
2013-10-14 03:05:00,64.4,40.8,30.06,SE,139,0.0,0.0,42,0.00,,,-99.99,Weather View 32 v60,2013-10-14 07:05:00,
2013-10-14 03:10:00,64.4,40.8,30.06,SE,139,0.0,0.0,42,0.00,,,-99.99,Weather View 32 v60,2013-10-14 07:10:00,
2013-10-14 03:15:00,64.4,40.8,30.09,SE,139,0.0,0.0,42,0.00,,,-99.99,Weather View 32 v60,2013-10-14 07:15:00,
2013-10-14 03:25:00,64.4,40.8,30.09,SE,139,0.0,0.0,42,0.00,,,-99.99,Weather View 32 v60,2013-10-14 07:25:00,
2013-10-14 03:30:00,64.4,40.8,30.06,SE,139,0.0,0.0,42,0.00,,,-99.99,Weather View 32 v60,2013-10-14 07:30:00,
2013-10-14 03:35:00,64.4,40.8,30.06,SE,139,0.0,0.0,42,0.00,,,-99.99,Weather View 32 v60,2013-10-14 07:35:00,
2013-10-14 03:45:00,64.2,40.6,30.06,SE,139,0.0,0.0,42,0.00,,,-99.99,Weather View 32 v60,2013-10-14 07:45:00,
2013-10-14 03:50:00,64.2,40.6,30.06,SE,139,0.0,0.0,42,0.00,,,-99.99,Weather View 32 v60,2013-10-14 07:50:00,
2013-10-14 04:00:00,64.0,40.4,30.06,SE,139,0.0,0.0,42,0.00,,,-99.99,Weather View 32 v60,2013-10-14 08:00:00,
2013-10-14 04:05:00,63.9,40.3,30.06,SE,139,0.0,0.0,42,0.00,,,-99.99,Weather View 32 v60,2013-10-14 08:05:00,
2013-10-14 04:10:00,63.9,40.9,30.06,SE,139,0.0,0.0,43,0.00,,,-99.99,Weather View 32 v60,2013-10-14 08:10:00,
2013-10-14 04:16:00,63.9,40.9,30.06,SE,139,0.0,0.0,43,0.00,,,-99.99,Weather View 32 v60,2013-10-14 08:16:00,
2013-10-14 04:25:00,63.7,40.7,30.06,SE,139,0.0,0.0,43,0.00,,,-99.99,Weather View 32 v60,2013-10-14 08:25:00,
2013-10-14 04:30:00,63.7,40.7,30.06,SE,139,0.0,0.0,43,0.00,,,-99.99,Weather View 32 v60,2013-10-14 08:30:00,
2013-10-14 04:35:00,63.7,40.7,30.06,SE,139,0.0,0.0,43,0.00,,,-99.99,Weather View 32 v60,2013-10-14 08:35:00,
2013-10-14 04:40:00,63.5,40.5,30.06,SE,139,0.0,0.0,43,0.00,,,-99.99,Weather View 32 v60,2013-10-14 08:40:00,
2013-10-14 04:50:00,63.5,40.5,30.06,SE,139,0.0,0.0,43,0.00,,,-99.99,Weather View 32 v60,2013-10-14 08:50:00,
2013-10-14 04:55:00,63.7,40.7,30.06,SE,139,0.0,0.0,43,0.00,,,-99.99,Weather View 32 v60,2013-10-14 08:55:00,
2013-10-14 05:00:00,63.7,40.7,30.06,SE,139,0.0,0.0,43,0.00,,,-99.99,Weather View 32 v60,2013-10-14 09:00:00,
2013-10-14 05:10:00,63.7,40.7,30.06,SE,139,0.0,0.0,43,0.00,,,-99.99,Weather View 32 v60,2013-10-14 09:10:00,
2013-10-14 05:16:00,63.5,40.5,30.09,SE,139,0.0,0.0,43,0.00,,,-99.99,Weather View 32 v60,2013-10-14 09:16:00,
2013-10-14 05:25:00,63.3,41.0,30.09,SE,139,0.0,0.0,44,0.00,,,-99.99,Weather View 32 v60,2013-10-14 09:25:00,
2013-10-14 05:30:00,63.1,40.8,30.09,SE,139,0.0,0.0,44,0.00,,,-99.99,Weather View 32 v60,2013-10-14 09:30:00,
2013-10-14 05:40:00,63.1,40.8,30.09,SE,139,0.0,0.0,44,0.00,,,-99.99,Weather View 32 v60,2013-10-14 09:40:00,
2013-10-14 05:45:00,63.0,40.7,30.09,SE,139,0.0,0.0,44,0.00,,,-99.99,Weather View 32 v60,2013-10-14 09:45:00,
2013-10-14 05:50:00,63.0,40.7,30.09,SE,139,0.0,0.0,44,0.00,,,-99.99,Weather View 32 v60,2013-10-14 09:50:00,
2013-10-14 06:00:00,63.0,40.7,30.09,SE,139,0.0,0.0,44,0.00,,,-99.99,Weather View 32 v60,2013-10-14 10:00:00,
2013-10-14 06:05:00,63.0,40.7,30.09,SE,139,0.0,0.0,44,0.00,,,-99.99,Weather View 32 v60,2013-10-14 10:05:00,
2013-10-14 06:10:00,63.0,40.7,30.09,SE,139,0.0,0.0,44,0.00,,,-99.99,Weather View 32 v60,2013-10-14 10:10:00,
2013-10-14 06:17:00,63.0,40.7,30.09,SE,139,0.0,0.0,44,0.00,,,-99.99,Weather View 32 v60,2013-10-14 10:17:00,
2013-10-14 06:25:00,63.0,40.7,30.09,SE,139,0.0,0.0,44,0.00,,,-99.99,Weather View 32 v60,2013-10-14 10:25:00,
2013-10-14 06:35:00,63.1,40.8,30.09,SE,139,0.0,0.0,44,0.00,,,-99.99,Weather View 32 v60,2013-10-14 10:35:00,
2013-10-14 06:40:00,63.1,40.8,30.09,SE,139,0.0,0.0,44,0.00,,,-99.99,Weather View 32 v60,2013-10-14 10:40:00,
2013-10-14 06:45:00,63.1,40.8,30.09,SE,139,0.0,0.0,44,0.00,,,-99.99,Weather View 32 v60,2013-10-14 10:45:00,
2013-10-14 06:55:00,63.1,40.8,30.09,SE,139,0.0,0.0,44,0.00,,,-99.99,Weather View 32 v60,2013-10-14 10:55:00,
2013-10-14 07:00:00,63.1,40.8,30.09,SE,139,0.0,0.0,44,0.00,,,-99.99,Weather View 32 v60,2013-10-14 11:00:00,
2013-10-14 07:05:00,63.1,41.4,30.09,SE,139,0.0,0.0,45,0.00,,,-99.99,Weather View 32 v60,2013-10-14 11:05:00,
2013-10-14 07:10:00,63.3,41.6,30.09,SE,139,0.0,0.0,45,0.00,,,-99.99,Weather View 32 v60,2013-10-14 11:10:00,
2013-10-14 07:17:00,63.3,41.6,30.09,SE,139,0.0,0.0,45,0.00,,,-99.99,Weather View 32 v60,2013-10-14 11:17:00,
2013-10-14 07:25:00,63.1,41.4,30.09,SE,139,0.0,0.0,45,0.00,,,-99.99,Weather View 32 v60,2013-10-14 11:25:00,
2013-10-14 07:35:00,63.1,40.8,30.09,SE,139,0.0,0.0,44,0.00,,,-99.99,Weather View 32 v60,2013-10-14 11:35:00,
2013-10-14 07:40:00,63.0,40.7,30.09,SE,139,0.0,0.0,44,0.00,,,-99.99,Weather View 32 v60,2013-10-14 11:40:00,
2013-10-14 07:45:00,63.0,40.7,30.09,SE,139,0.0,0.0,44,0.00,,,-99.99,Weather View 32 v60,2013-10-14 11:45:00,
2013-10-14 07:50:00,62.8,40.5,30.09,SE,139,0.0,0.0,44,0.00,,,-99.99,Weather View 32 v60,2013-10-14 11:50:00,
2013-10-14 07:55:00,62.8,40.5,30.09,SE,139,0.0,0.0,44,0.00,,,-99.99,Weather View 32 v60,2013-10-14 11:55:00,
2013-10-14 08:00:00,62.8,40.5,30.12,SE,139,0.0,0.0,44,0.00,,,-99.99,Weather View 32 v60,2013-10-14 12:00:00,
2013-10-14 08:10:00,62.8,41.1,30.12,SE,139,0.0,0.0,45,0.00,,,-99.99,Weather View 32 v60,2013-10-14 12:10:00,
2013-10-14 08:15:00,62.8,41.1,30.12,SE,139,0.0,0.0,45,0.00,,,-99.99,Weather View 32 v60,2013-10-14 12:15:00,
2013-10-14 08:25:00,62.8,41.1,30.12,SE,139,0.0,0.0,45,0.00,,,-99.99,Weather View 32 v60,2013-10-14 12:25:00,
2013-10-14 08:30:00,62.8,41.1,30.12,SE,139,0.0,0.0,45,0.00,,,-99.99,Weather View 32 v60,2013-10-14 12:30:00,
2013-10-14 08:35:00,63.0,41.2,30.12,SE,139,0.0,0.0,45,0.00,,,-99.99,Weather View 32 v60,2013-10-14 12:35:00,
2013-10-14 08:40:00,63.0,41.2,30.12,SE,139,0.0,0.0,45,0.00,,,-99.99,Weather View 32 v60,2013-10-14 12:40:00,
2013-10-14 08:50:00,63.0,41.2,30.12,SE,139,0.0,0.0,45,0.00,,,-99.99,Weather View 32 v60,2013-10-14 12:50:00,
2013-10-14 08:55:00,63.1,41.4,30.12,SE,139,0.0,0.0,45,0.00,,,-99.99,Weather View 32 v60,2013-10-14 12:55:00,
2013-10-14 09:00:00,63.3,41.6,30.12,SE,139,0.0,0.0,45,0.00,,,-99.99,Weather View 32 v60,2013-10-14 13:00:00,
2013-10-14 09:10:00,63.5,41.7,30.12,SE,139,0.0,0.0,45,0.00,,,-99.99,Weather View 32 v60,2013-10-14 13:10:00,
2013-10-14 09:18:00,63.7,41.9,30.12,SE,139,0.0,0.0,45,0.00,,,-99.99,Weather View 32 v60,2013-10-14 13:18:00,
2013-10-14 09:25:00,63.9,42.1,30.12,ENE,61,0.0,0.0,45,0.00,,,-99.99,Weather View 32 v60,2013-10-14 13:25:00,
2013-10-14 09:35:00,64.2,42.4,30.12,West,267,0.0,0.0,45,0.00,,,-99.99,Weather View 32 v60,2013-10-14 13:35:00,
2013-10-14 09:45:00,64.8,43.4,30.12,South,187,0.0,0.0,46,0.00,,,-99.99,Weather View 32 v60,2013-10-14 13:45:00,
2013-10-14 09:50:00,64.9,43.6,30.12,SW,217,0.0,3.0,46,0.00,,,-99.99,Weather View 32 v60,2013-10-14 13:50:00,
2013-10-14 10:00:00,65.5,44.1,30.12,SSW,196,0.0,3.0,46,0.00,,,-99.99,Weather View 32 v60,2013-10-14 14:00:00,
2013-10-14 10:10:00,66.0,44.6,30.12,West,278,0.0,3.0,46,0.00,,,-99.99,Weather View 32 v60,2013-10-14 14:10:00,
2013-10-14 10:15:00,66.2,44.8,30.12,SW,226,0.0,3.0,46,0.00,,,-99.99,Weather View 32 v60,2013-10-14 14:15:00,
2013-10-14 10:20:00,66.4,44.9,30.12,South,179,0.0,3.0,46,0.00,,,-99.99,Weather View 32 v60,2013-10-14 14:20:00,
2013-10-14 10:30:00,66.7,45.2,30.12,SE,133,0.0,3.0,46,0.00,,,-99.99,Weather View 32 v60,2013-10-14 14:30:00,
2013-10-14 10:35:00,67.1,45.6,30.12,SSW,204,0.0,3.0,46,0.00,,,-99.99,Weather View 32 v60,2013-10-14 14:35:00,
2013-10-14 10:40:00,67.3,45.2,30.12,West,280,0.0,3.0,45,0.00,,,-99.99,Weather View 32 v60,2013-10-14 14:40:00,
2013-10-14 10:50:00,67.6,45.5,30.12,West,280,0.0,3.0,45,0.00,,,-99.99,Weather View 32 v60,2013-10-14 14:50:00,
2013-10-14 10:55:00,68.0,45.8,30.12,SE,129,0.0,3.0,45,0.00,,,-99.99,Weather View 32 v60,2013-10-14 14:55:00,
2013-10-14 11:05:00,68.2,46.0,30.12,SSE,151,0.0,3.0,45,0.00,,,-99.99,Weather View 32 v60,2013-10-14 15:05:00,
2013-10-14 11:10:00,68.4,46.1,30.12,SSE,148,0.0,3.0,45,0.00,,,-99.99,Weather View 32 v60,2013-10-14 15:10:00,
2013-10-14 11:15:00,68.4,45.5,30.12,SSW,195,0.0,3.0,44,0.00,,,-99.99,Weather View 32 v60,2013-10-14 15:15:00,
2013-10-14 11:25:00,68.7,45.9,30.12,East,94,0.0,3.0,44,0.00,,,-99.99,Weather View 32 v60,2013-10-14 15:25:00,
2013-10-14 11:30:00,68.7,45.9,30.12,WSW,248,0.0,3.0,44,0.00,,,-99.99,Weather View 32 v60,2013-10-14 15:30:00,
2013-10-14 11:35:00,68.9,45.4,30.12,NW,317,0.0,0.0,43,0.00,,,-99.99,Weather View 32 v60,2013-10-14 15:35:00,
2013-10-14 11:45:00,69.4,45.3,30.12,ESE,116,0.0,0.0,42,0.00,,,-99.99,Weather View 32 v60,2013-10-14 15:45:00,
2013-10-14 11:50:00,69.8,45.6,30.12,South,190,0.0,0.0,42,0.00,,,-99.99,Weather View 32 v60,2013-10-14 15:50:00,
2013-10-14 11:55:00,70.0,45.8,30.12,East,80,0.0,0.0,42,0.00,,,-99.99,Weather View 32 v60,2013-10-14 15:55:00,
2013-10-14 12:05:00,70.3,45.5,30.09,NNW,336,0.0,0.0,41,0.00,,,-99.99,Weather View 32 v60,2013-10-14 16:05:00,
2013-10-14 12:10:00,70.5,45.0,30.09,SW,214,0.0,0.0,40,0.00,,,-99.99,Weather View 32 v60,2013-10-14 16:10:00,
2013-10-14 12:15:00,70.5,44.3,30.09,SE,136,0.0,0.0,39,0.00,,,-99.99,Weather View 32 v60,2013-10-14 16:15:00,
2013-10-14 12:20:00,71.1,44.1,30.09,ESE,119,0.0,0.0,38,0.00,,,-99.99,Weather View 32 v60,2013-10-14 16:20:00,
2013-10-14 12:25:00,71.2,44.3,30.09,South,184,0.0,0.0,38,0.00,,,-99.99,Weather View 32 v60,2013-10-14 16:25:00,
2013-10-14 12:30:00,71.2,43.6,30.09,South,186,0.0,0.0,37,0.00,,,-99.99,Weather View 32 v60,2013-10-14 16:30:00,
2013-10-14 12:40:00,72.5,44.0,30.09,ENE,73,0.0,0.0,36,0.00,,,-99.99,Weather View 32 v60,2013-10-14 16:40:00,
2013-10-14 12:45:00,72.7,42.6,30.09,ESE,122,0.0,0.0,34,0.00,,,-99.99,Weather View 32 v60,2013-10-14 16:45:00,
2013-10-14 12:50:00,72.7,41.8,30.09,ESE,110,0.0,3.0,33,0.00,,,-99.99,Weather View 32 v60,2013-10-14 16:50:00,
2013-10-14 13:00:00,72.5,41.7,30.09,SE,140,0.0,3.0,33,0.00,,,-99.99,Weather View 32 v60,2013-10-14 17:00:00,
2013-10-14 13:10:00,74.1,42.3,30.09,SE,131,0.0,3.0,32,0.00,,,-99.99,Weather View 32 v60,2013-10-14 17:10:00,
2013-10-14 13:15:00,73.4,40.8,30.09,East,87,0.0,3.0,31,0.00,,,-99.99,Weather View 32 v60,2013-10-14 17:15:00,
2013-10-14 13:20:00,72.9,38.7,30.09,SE,135,0.0,3.0,29,0.00,,,-99.99,Weather View 32 v60,2013-10-14 17:20:00,
2013-10-14 13:30:00,72.3,38.2,30.09,East,92,0.0,3.0,29,0.00,,,-99.99,Weather View 32 v60,2013-10-14 17:30:00,
2013-10-14 13:35:00,72.0,37.9,30.09,East,93,0.0,3.0,29,0.00,,,-99.99,Weather View 32 v60,2013-10-14 17:35:00,
2013-10-14 13:40:00,72.3,38.2,30.09,East,92,0.0,3.0,29,0.00,,,-99.99,Weather View 32 v60,2013-10-14 17:40:00,
2013-10-14 13:50:00,72.7,37.6,30.06,SW,214,0.0,0.0,28,0.00,,,-99.99,Weather View 32 v60,2013-10-14 17:50:00,
2013-10-14 13:55:00,72.5,36.5,30.06,South,172,0.0,0.0,27,0.00,,,-99.99,Weather View 32 v60,2013-10-14 17:55:00,
2013-10-14 14:05:00,72.5,35.6,30.06,SSW,207,0.0,0.0,26,0.00,,,-99.99,Weather View 32 v60,2013-10-14 18:05:00,
2013-10-14 14:10:00,72.5,35.6,30.06,SW,233,0.0,0.0,26,0.00,,,-99.99,Weather View 32 v60,2013-10-14 18:10:00,
2013-10-14 14:20:00,73.4,36.3,30.06,ESE,111,0.0,5.0,26,0.00,,,-99.99,Weather View 32 v60,2013-10-14 18:20:00,
2013-10-14 14:30:00,73.8,35.7,30.06,East,100,0.0,5.0,25,0.00,,,-99.99,Weather View 32 v60,2013-10-14 18:30:00,
2013-10-14 14:40:00,73.6,34.5,30.06,NW,320,0.0,5.0,24,0.00,,,-99.99,Weather View 32 v60,2013-10-14 18:40:00,
2013-10-14 14:45:00,73.8,33.6,30.06,ESE,112,0.0,5.0,23,0.00,,,-99.99,Weather View 32 v60,2013-10-14 18:45:00,
2013-10-14 14:55:00,73.6,33.4,30.06,SE,142,0.0,5.0,23,0.00,,,-99.99,Weather View 32 v60,2013-10-14 18:55:00,
2013-10-14 15:05:00,72.5,32.5,30.06,SE,125,0.0,5.0,23,0.00,,,-99.99,Weather View 32 v60,2013-10-14 19:05:00,
2013-10-14 15:10:00,72.9,32.8,30.06,SE,125,0.0,5.0,23,0.00,,,-99.99,Weather View 32 v60,2013-10-14 19:10:00,
2013-10-14 15:20:00,72.7,32.7,30.06,SE,140,0.0,3.0,23,0.00,,,-99.99,Weather View 32 v60,2013-10-14 19:20:00,
2013-10-14 15:30:00,72.5,32.5,30.06,ESE,118,0.0,0.0,23,0.00,,,-99.99,Weather View 32 v60,2013-10-14 19:30:00,
2013-10-14 15:35:00,72.3,32.4,30.06,ESE,118,0.0,0.0,23,0.00,,,-99.99,Weather View 32 v60,2013-10-14 19:35:00,
2013-10-14 15:40:00,72.3,32.4,30.06,East,101,0.0,0.0,23,0.00,,,-99.99,Weather View 32 v60,2013-10-14 19:40:00,
2013-10-14 15:50:00,71.8,31.9,30.03,ESE,105,0.0,0.0,23,0.00,,,-99.99,Weather View 32 v60,2013-10-14 19:50:00,
2013-10-14 15:55:00,71.2,31.4,30.03,NNW,345,0.0,0.0,23,0.00,,,-99.99,Weather View 32 v60,2013-10-14 19:55:00,
2013-10-14 16:05:00,70.5,30.8,30.03,NNW,345,0.0,0.0,23,0.00,,,-99.99,Weather View 32 v60,2013-10-14 20:05:00,
2013-10-14 16:10:00,70.7,31.0,30.03,NNW,345,0.0,0.0,23,0.00,,,-99.99,Weather View 32 v60,2013-10-14 20:10:00,
2013-10-14 16:20:00,71.1,31.3,30.03,NNW,345,0.0,0.0,23,0.00,,,-99.99,Weather View 32 v60,2013-10-14 20:20:00,
2013-10-14 16:25:00,71.1,31.3,30.03,NNW,345,0.0,0.0,23,0.00,,,-99.99,Weather View 32 v60,2013-10-14 20:25:00,
2013-10-14 16:35:00,70.9,31.1,30.03,NNW,345,0.0,0.0,23,0.00,,,-99.99,Weather View 32 v60,2013-10-14 20:35:00,
2013-10-14 16:40:00,70.7,31.0,30.03,NNW,345,0.0,0.0,23,0.00,,,-99.99,Weather View 32 v60,2013-10-14 20:40:00,
2013-10-14 16:45:00,70.5,31.9,30.03,SE,132,0.0,0.0,24,0.00,,,-99.99,Weather View 32 v60,2013-10-14 20:45:00,
2013-10-14 16:55:00,70.5,31.9,30.03,SE,125,0.0,0.0,24,0.00,,,-99.99,Weather View 32 v60,2013-10-14 20:55:00,
2013-10-14 17:00:00,70.7,32.0,30.03,East,89,0.0,0.0,24,0.00,,,-99.99,Weather View 32 v60,2013-10-14 21:00:00,
2013-10-14 17:05:00,70.7,32.0,30.03,East,89,0.0,0.0,24,0.00,,,-99.99,Weather View 32 v60,2013-10-14 21:05:00,
2013-10-14 17:10:00,70.5,31.9,30.03,ESE,104,0.0,0.0,24,0.00,,,-99.99,Weather View 32 v60,2013-10-14 21:10:00,
2013-10-14 17:15:00,70.3,30.7,30.03,ESE,105,0.0,0.0,23,0.00,,,-99.99,Weather View 32 v60,2013-10-14 21:15:00,
2013-10-14 17:24:00,70.2,30.5,30.03,ESE,102,0.0,0.0,23,0.00,,,-99.99,Weather View 32 v60,2013-10-14 21:24:00,
2013-10-14 17:30:00,69.6,30.1,30.03,ESE,120,0.0,0.0,23,0.00,,,-99.99,Weather View 32 v60,2013-10-14 21:30:00,
2013-10-14 17:35:00,69.6,30.1,30.03,ESE,120,0.0,0.0,23,0.00,,,-99.99,Weather View 32 v60,2013-10-14 21:35:00,
2013-10-14 17:40:00,69.4,31.0,30.03,ESE,120,0.0,0.0,24,0.00,,,-99.99,Weather View 32 v60,2013-10-14 21:40:00,
2013-10-14 17:50:00,69.4,31.0,30.03,ESE,121,0.0,0.0,24,0.00,,,-99.99,Weather View 32 v60,2013-10-14 21:50:00,
2013-10-14 17:55:00,69.3,30.8,30.03,ESE,120,0.0,0.0,24,0.00,,,-99.99,Weather View 32 v60,2013-10-14 21:55:00,
2013-10-14 18:00:00,69.1,30.7,30.06,ESE,120,0.0,0.0,24,0.00,,,-99.99,Weather View 32 v60,2013-10-14 22:00:00,
2013-10-14 18:10:00,68.7,30.4,30.06,ESE,120,0.0,0.0,24,0.00,,,-99.99,Weather View 32 v60,2013-10-14 22:10:00,
2013-10-14 18:15:00,68.5,30.2,30.06,ESE,120,0.0,0.0,24,0.00,,,-99.99,Weather View 32 v60,2013-10-14 22:15:00,
2013-10-14 18:24:00,68.5,30.2,30.06,ESE,120,0.0,0.0,24,0.00,,,-99.99,Weather View 32 v60,2013-10-14 22:24:00,
2013-10-14 18:30:00,68.4,31.1,30.06,ESE,120,0.0,0.0,25,0.00,,,-99.99,Weather View 32 v60,2013-10-14 22:30:00,
2013-10-14 18:40:00,68.2,30.9,30.06,ESE,120,0.0,0.0,25,0.00,,,-99.99,Weather View 32 v60,2013-10-14 22:40:00,
2013-10-14 18:45:00,68.2,30.9,30.06,ESE,120,0.0,0.0,25,0.00,,,-99.99,Weather View 32 v60,2013-10-14 22:45:00,
2013-10-14 18:50:00,68.0,30.8,30.06,NNE,15,0.0,0.0,25,0.00,,,-99.99,Weather View 32 v60,2013-10-14 22:50:00,
2013-10-14 19:00:00,67.8,30.6,30.06,NNE,15,0.0,0.0,25,0.00,,,-99.99,Weather View 32 v60,2013-10-14 23:00:00,
2013-10-14 19:10:00,67.6,30.5,30.06,NNE,15,0.0,0.0,25,0.00,,,-99.99,Weather View 32 v60,2013-10-14 23:10:00,
2013-10-14 19:15:00,67.6,30.5,30.06,NNE,15,0.0,0.0,25,0.00,,,-99.99,Weather View 32 v60,2013-10-14 23:15:00,
2013-10-14 19:20:00,67.6,30.5,30.06,NNE,15,0.0,0.0,25,0.00,,,-99.99,Weather View 32 v60,2013-10-14 23:20:00,
2013-10-14 19:30:00,67.5,31.3,30.06,NNE,15,0.0,0.0,26,0.00,,,-99.99,Weather View 32 v60,2013-10-14 23:30:00,
2013-10-14 19:35:00,67.5,31.3,30.06,NNE,15,0.0,0.0,26,0.00,,,-99.99,Weather View 32 v60,2013-10-14 23:35:00,
2013-10-14 19:40:00,67.5,31.3,30.06,NNE,14,0.0,0.0,26,0.00,,,-99.99,Weather View 32 v60,2013-10-14 23:40:00,
2013-10-14 19:45:00,67.3,31.1,30.06,NNE,15,0.0,0.0,26,0.00,,,-99.99,Weather View 32 v60,2013-10-14 23:45:00,
2013-10-14 19:55:00,67.3,31.1,30.06,NNE,15,0.0,0.0,26,0.00,,,-99.99,Weather View 32 v60,2013-10-14 23:55:00,
2013-10-14 20:05:00,67.1,31.0,30.06,NNE,15,0.0,0.0,26,0.00,,,-99.99,Weather View 32 v60,2013-10-15 00:05:00,
2013-10-14 20:10:00,67.1,31.9,30.06,NNE,15,0.0,0.0,27,0.00,,,-99.99,Weather View 32 v60,2013-10-15 00:10:00,
2013-10-14 20:15:00,66.9,31.8,30.06,NNE,15,0.0,0.0,27,0.00,,,-99.99,Weather View 32 v60,2013-10-15 00:15:00,
2013-10-14 20:20:00,66.9,31.8,30.06,NNE,15,0.0,0.0,27,0.00,,,-99.99,Weather View 32 v60,2013-10-15 00:20:00,
2013-10-14 20:25:00,66.9,31.8,30.06,NNE,15,0.0,0.0,27,0.00,,,-99.99,Weather View 32 v60,2013-10-15 00:25:00,
2013-10-14 20:35:00,66.9,31.8,30.06,NNE,15,0.0,0.0,27,0.00,,,-99.99,Weather View 32 v60,2013-10-15 00:35:00,
2013-10-14 20:40:00,66.9,31.8,30.06,NNE,15,0.0,0.0,27,0.00,,,-99.99,Weather View 32 v60,2013-10-15 00:40:00,
2013-10-14 20:50:00,66.9,32.7,30.06,NNE,15,0.0,0.0,28,0.00,,,-99.99,Weather View 32 v60,2013-10-15 00:50:00,
2013-10-14 20:55:00,66.7,32.5,30.06,NNE,15,0.0,0.0,28,0.00,,,-99.99,Weather View 32 v60,2013-10-15 00:55:00,
2013-10-14 21:00:00,66.7,32.5,30.06,NNE,15,0.0,0.0,28,0.00,,,-99.99,Weather View 32 v60,2013-10-15 01:00:00,
2013-10-14 21:10:00,66.7,32.5,30.06,NNW,339,0.0,0.0,28,0.00,,,-99.99,Weather View 32 v60,2013-10-15 01:10:00,
2013-10-14 21:15:00,66.7,32.5,30.06,SSW,212,0.0,0.0,28,0.00,,,-99.99,Weather View 32 v60,2013-10-15 01:15:00,
2013-10-14 21:25:00,66.7,32.5,30.06,SSW,212,0.0,0.0,28,0.00,,,-99.99,Weather View 32 v60,2013-10-15 01:25:00,
2013-10-14 21:30:00,66.7,32.5,30.06,SSW,212,0.0,0.0,28,0.00,,,-99.99,Weather View 32 v60,2013-10-15 01:30:00,
2013-10-14 21:40:00,66.7,33.4,30.06,SSW,212,0.0,0.0,29,0.00,,,-99.99,Weather View 32 v60,2013-10-15 01:40:00,
2013-10-14 21:45:00,66.7,33.4,30.06,SSW,212,0.0,0.0,29,0.00,,,-99.99,Weather View 32 v60,2013-10-15 01:45:00,
2013-10-14 21:55:00,66.7,33.4,30.06,SSW,212,0.0,0.0,29,0.00,,,-99.99,Weather View 32 v60,2013-10-15 01:55:00,
2013-10-14 22:00:00,66.6,33.2,30.06,SSW,212,0.0,0.0,29,0.00,,,-99.99,Weather View 32 v60,2013-10-15 02:00:00,
2013-10-14 22:10:00,66.6,33.2,30.06,SSW,212,0.0,0.0,29,0.00,,,-99.99,Weather View 32 v60,2013-10-15 02:10:00,
2013-10-14 22:15:00,66.6,33.2,30.09,SSW,212,0.0,0.0,29,0.00,,,-99.99,Weather View 32 v60,2013-10-15 02:15:00,
2013-10-14 22:25:00,66.6,33.2,30.09,SSW,212,0.0,0.0,29,0.00,,,-99.99,Weather View 32 v60,2013-10-15 02:25:00,
2013-10-14 22:30:00,66.6,33.2,30.09,SSW,212,0.0,0.0,29,0.00,,,-99.99,Weather View 32 v60,2013-10-15 02:30:00,
2013-10-14 22:40:00,66.4,33.1,30.09,SSW,212,0.0,0.0,29,0.00,,,-99.99,Weather View 32 v60,2013-10-15 02:40:00,
2013-10-14 22:45:00,66.4,33.1,30.09,SSW,212,0.0,0.0,29,0.00,,,-99.99,Weather View 32 v60,2013-10-15 02:45:00,
2013-10-14 22:50:00,66.4,33.1,30.09,SSW,212,0.0,0.0,29,0.00,,,-99.99,Weather View 32 v60,2013-10-15 02:50:00,
2013-10-14 23:00:00,66.4,33.9,30.09,SSW,212,0.0,0.0,30,0.00,,,-99.99,Weather View 32 v60,2013-10-15 03:00:00,
2013-10-14 23:05:00,66.4,33.9,30.09,SSW,212,0.0,0.0,30,0.00,,,-99.99,Weather View 32 v60,2013-10-15 03:05:00,
2013-10-14 23:15:00,66.4,33.9,30.06,SSW,212,0.0,0.0,30,0.00,,,-99.99,Weather View 32 v60,2013-10-15 03:15:00,
2013-10-14 23:20:00,66.4,33.9,30.06,SSW,212,0.0,0.0,30,0.00,,,-99.99,Weather View 32 v60,2013-10-15 03:20:00,
2013-10-14 23:27:00,66.2,33.8,30.06,SSW,212,0.0,0.0,30,0.00,,,-99.99,Weather View 32 v60,2013-10-15 03:27:00,
2013-10-14 23:35:00,66.2,34.6,30.06,SSW,212,0.0,0.0,31,0.00,,,-99.99,Weather View 32 v60,2013-10-15 03:35:00,
2013-10-14 23:40:00,66.2,34.6,30.06,SSW,212,0.0,0.0,31,0.00,,,-99.99,Weather View 32 v60,2013-10-15 03:40:00,
2013-10-14 23:50:00,66.0,34.4,30.06,WSW,241,0.0,0.0,31,0.00,,,-99.99,Weather View 32 v60,2013-10-15 03:50:00,